La Grange, TX

1:13 AM CST on November 15, 2019 (GMT -0600)
La Grange

Weather History for K3T5 - August, 2019

Change the Weather History Date:

Friday, August 30, 2019

  Actual Average (KAUS) Record (KAUS)
Temperature  
Mean Temperature 86 °F -  
Max Temperature 97 °F 92 °F 104 °F (2000)
Min Temperature 76 °F 69 °F 62 °F (1986)
Cooling Degree Days 22    
Growing Degree Days 36 (Base 50)    
Moisture  
Dew Point 75 °F    
Average Humidity 74    
Maximum Humidity 100    
Minimum Humidity 43    
Precipitation  
Precipitation 0.00 in - - ()
Sea Level Pressure  
Sea Level Pressure 29.97 in    
Wind  
Wind Speed 3 mph (SSE)    
Max Wind Speed 12 mph    
Max Gust Speed -    
Visibility 9 miles    
Events Thunderstorm    
Averages and records for this station are not official NWS values.
T = Trace of Precipitation, MM = Missing Value Source: NWS Daily Summary

Daily Weather History Graph

Daily Weather History Graph

Search for Another Location

Airport or City:

Astronomy

Aug. 30, 2019 Rise Set
Actual Time 7:03 AM CDT 7:52 PM CDT
Civil Twilight 6:39 AM CDT 8:17 PM CDT
Nautical Twilight 6:10 AM CDT 8:45 PM CDT
Astronomical Twilight 5:41 AM CDT 9:15 PM CDT
Moon 7:09 AM CDT (8/30) 8:29 PM CDT (8/30)
Length of Visible Light 13h 37m
Length of Day
12h 49m
New Moon, 0% of the Moon is Illuminated
Aug 30
New Moon
Sep 5
First Quarter
Sep 13
Full
Sep 21
Last Quarter
Sep 28
New

Hourly Weather History & Observations

Time (CDT) Temp. Heat Index Dew Point Humidity Pressure Visibility Wind Dir Wind Speed Gust Speed Precip Events Conditions
12:15 AM 81.3 °F 88.7 °F 77.0 °F 87% 30.00 in 10.0 mi SSE 4.6 mph - N/A   Clear
12:35 AM 81.0 °F 87.9 °F 77.2 °F 88% 30.00 in 10.0 mi SSE 4.6 mph - N/A   Clear
12:55 AM 80.6 °F 87.3 °F 77.5 °F 90% 29.99 in 10.0 mi South 4.6 mph - N/A   Clear
1:15 AM 80.1 °F 86.0 °F 77.4 °F 91% 29.99 in 10.0 mi South 3.5 mph - N/A   Clear
1:35 AM 79.7 °F - 77.9 °F 94% 29.98 in 10.0 mi Calm Calm - N/A   Clear
1:55 AM 79.0 °F - 78.4 °F 98% 29.98 in 10.0 mi Calm Calm - N/A   Clear
2:15 AM 79.0 °F - 79.0 °F 100% 29.97 in 10.0 mi SSE 3.5 mph - N/A   Scattered Clouds
2:35 AM 79.2 °F - 79.2 °F 100% 29.97 in 10.0 mi Calm Calm - N/A   Mostly Cloudy
2:55 AM 79.3 °F - 79.3 °F 100% 29.97 in 10.0 mi SSE 3.5 mph - N/A   Overcast
3:15 AM 78.8 °F - 78.8 °F 100% 29.96 in 10.0 mi Calm Calm - N/A   Mostly Cloudy
3:35 AM 78.8 °F - 78.8 °F 100% 29.96 in 10.0 mi Calm Calm - N/A   Scattered Clouds
3:55 AM 78.3 °F - 78.3 °F 100% 29.96 in 10.0 mi Calm Calm - N/A   Scattered Clouds
4:15 AM 78.1 °F - 78.1 °F 100% 29.96 in 10.0 mi Calm Calm - N/A   Scattered Clouds
4:35 AM 77.9 °F - 77.9 °F 100% 29.97 in 10.0 mi Calm Calm - N/A   Scattered Clouds
4:55 AM 77.9 °F - 77.9 °F 100% 29.98 in 7.0 mi Calm Calm - N/A   Scattered Clouds
5:15 AM 77.5 °F - 77.5 °F 100% 29.97 in 7.0 mi Calm Calm - N/A   Mostly Cloudy
5:35 AM 77.5 °F - 77.5 °F 100% 29.98 in 10.0 mi Calm Calm - N/A   Mostly Cloudy
5:55 AM 77.5 °F - 77.5 °F 100% 29.99 in 7.0 mi Calm Calm - N/A   Mostly Cloudy
6:15 AM 77.2 °F - 77.2 °F 100% 30.01 in 5.0 mi Calm Calm - N/A   Scattered Clouds
6:35 AM 76.8 °F - 76.8 °F 100% 30.01 in 5.0 mi Calm Calm - N/A   Scattered Clouds
6:55 AM 76.5 °F - 76.5 °F 100% 30.00 in 1.2 mi Calm Calm - N/A   Mist
7:15 AM 76.5 °F - 76.5 °F 100% 30.01 in 5.0 mi Calm Calm - N/A   Clear
7:35 AM 76.3 °F - 76.3 °F 100% 30.01 in 10.0 mi Calm Calm - N/A   Scattered Clouds
7:55 AM 77.9 °F - 77.9 °F 100% 30.02 in 5.0 mi Calm Calm - N/A   Scattered Clouds
8:15 AM 78.3 °F - 78.3 °F 100% 30.03 in 7.0 mi Calm Calm - N/A   Scattered Clouds
8:35 AM 79.5 °F - 79.5 °F 100% 30.02 in 10.0 mi Calm Calm - N/A   Scattered Clouds
8:55 AM 81.7 °F 93.0 °F 81.3 °F 99% 30.01 in 10.0 mi Calm Calm - N/A   Clear
9:15 AM 83.7 °F 96.5 °F 80.1 °F 89% 30.01 in 10.0 mi South 5.8 mph - N/A   Scattered Clouds
9:35 AM 84.7 °F 97.4 °F 79.0 °F 83% 30.01 in 10.0 mi South 4.6 mph - N/A   Mostly Cloudy
9:55 AM 85.3 °F 97.6 °F 78.6 °F 80% 30.01 in 10.0 mi SSE 4.6 mph - N/A   Mostly Cloudy
10:15 AM 85.6 °F 95.5 °F 76.3 °F 73% 30.02 in 10.0 mi South 5.8 mph - N/A   Mostly Cloudy
10:35 AM 86.2 °F 97.4 °F 77.2 °F 74% 30.02 in 10.0 mi Calm Calm - N/A   Overcast
10:55 AM 88.3 °F 99.5 °F 75.9 °F 67% 30.01 in 10.0 mi WSW 4.6 mph - N/A   Overcast
11:15 AM 90.0 °F 100.2 °F 74.7 °F 61% 30.01 in 10.0 mi Calm Calm - N/A   Mostly Cloudy
11:35 AM 90.3 °F 100.4 °F 74.7 °F 60% 30.01 in 10.0 mi Calm Calm - N/A   Mostly Cloudy
11:55 AM 91.4 °F 99.5 °F 72.9 °F 54% 30.00 in 10.0 mi SW 5.8 mph - N/A   Overcast
12:15 PM 90.9 °F 98.3 °F 72.0 °F 54% 30.00 in 10.0 mi WSW 3.5 mph - N/A   Overcast
12:35 PM 92.3 °F 99.7 °F 71.6 °F 51% 29.99 in 10.0 mi SSW 8.1 mph - N/A   Mostly Cloudy
12:55 PM 92.8 °F 100.3 °F 72.0 °F 50% 29.99 in 10.0 mi SW 5.8 mph - N/A   Scattered Clouds
1:35 PM 93.0 °F 99.5 °F 70.9 °F 48% 29.98 in 10.0 mi Calm Calm - N/A   Mostly Cloudy
1:55 PM 94.8 °F 102.8 °F 71.4 °F 47% 29.96 in 10.0 mi NNE 3.5 mph - N/A   Scattered Clouds
2:15 PM 95.5 °F 102.4 °F 70.3 °F 44% 29.96 in 10.0 mi ESE 5.8 mph - N/A   Clear
2:35 PM 95.9 °F 103.2 °F 70.5 °F 44% 29.95 in 10.0 mi South 6.9 mph - N/A   Clear
2:55 PM 96.3 °F 103.3 °F 70.3 °F 43% 29.94 in 10.0 mi ESE 6.9 mph - N/A   Scattered Clouds
3:15 PM 97.7 °F 106.4 °F 71.6 °F 43% 29.94 in 10.0 mi East 6.9 mph - N/A   Mostly Cloudy
3:35 PM 97.3 °F 105.6 °F 71.2 °F 43% 29.93 in 10.0 mi ESE 10.4 mph - N/A   Scattered Clouds
3:55 PM 91.0 °F 98.7 °F 72.1 °F 54% 29.94 in 10.0 mi South 11.5 mph - N/A   Clear
4:15 PM 95.4 °F 104.0 °F 72.5 °F 47% 29.94 in 10.0 mi South 10.4 mph - N/A   Clear
4:35 PM 95.4 °F 104.0 °F 72.1 °F 47% 29.94 in 10.0 mi SE 8.1 mph - N/A   Clear
4:55 PM 95.0 °F 103.2 °F 71.6 °F 47% 29.93 in 10.0 mi South 6.9 mph - N/A   Scattered Clouds
5:15 PM 94.6 °F 103.0 °F 72.3 °F 48% 29.93 in 10.0 mi South 8.1 mph - N/A   Scattered Clouds
5:35 PM 94.3 °F 102.2 °F 72.0 °F 48% 29.93 in 10.0 mi SSW 3.5 mph - N/A   Scattered Clouds
5:55 PM 94.3 °F 102.2 °F 72.0 °F 48% 29.94 in 10.0 mi SSW 5.8 mph - N/A   Scattered Clouds
6:15 PM 93.0 °F 101.3 °F 72.5 °F 51% 29.93 in 10.0 mi NNE 4.6 mph - N/A Thunderstorm Mostly Cloudy
6:35 PM 91.6 °F 99.9 °F 72.9 °F 54% 29.93 in 10.0 mi Calm Calm - N/A   Mostly Cloudy
6:55 PM 90.7 °F 99.0 °F 72.9 °F 56% 29.92 in 10.0 mi Calm Calm - N/A   Clear
7:15 PM 90.0 °F 97.4 °F 72.5 °F 56% 29.92 in 10.0 mi Calm Calm - N/A   Clear
7:35 PM 90.0 °F 98.5 °F 73.2 °F 58% 29.91 in 10.0 mi SSE 6.9 mph - N/A   Clear
7:55 PM 88.7 °F 96.7 °F 73.4 °F 60% 29.93 in 10.0 mi South 4.6 mph - N/A   Clear
8:15 PM 87.8 °F 96.1 °F 73.8 °F 63% 29.93 in 10.0 mi South 5.8 mph - N/A   Clear
8:35 PM 87.1 °F 95.4 °F 73.9 °F 65% 29.93 in 10.0 mi SSE 5.8 mph - N/A   Clear
8:55 PM 86.0 °F 93.8 °F 73.8 °F 67% 29.93 in 10.0 mi SSE 5.8 mph - N/A   Clear
9:15 PM 85.5 °F 93.0 °F 73.9 °F 68% 29.94 in 10.0 mi SSE 5.8 mph - N/A   Clear
9:35 PM 84.6 °F 91.7 °F 73.8 °F 70% 29.94 in 10.0 mi SSE 4.6 mph - N/A   Clear
9:55 PM 84.4 °F 91.7 °F 73.9 °F 71% 29.95 in 10.0 mi Calm Calm - N/A   Clear
10:15 PM 83.8 °F 91.1 °F 74.3 °F 73% 29.96 in 10.0 mi SSE 4.6 mph - N/A   Clear
10:35 PM 83.7 °F 91.0 °F 74.5 °F 74% 29.96 in 10.0 mi SSE 6.9 mph - N/A   Clear
10:55 PM 83.5 °F 90.9 °F 74.7 °F 75% 29.98 in 10.0 mi SSE 5.8 mph - N/A   Clear
11:15 PM 83.1 °F 90.4 °F 74.8 °F 76% 29.98 in 10.0 mi South 6.9 mph - N/A   Clear
11:35 PM 82.6 °F 89.4 °F 74.8 °F 77% 29.99 in 10.0 mi SSE 4.6 mph - N/A   Clear
11:55 PM 81.7 °F 88.0 °F 75.0 °F 80% 29.99 in 10.0 mi South 3.5 mph - N/A   Clear